Starlink 3680

operational
NORAD ID: 51969 Int'l Des: 2022-025 Owner: SPXS Country: US Constellation: starlink
LEOCIRCULARSTARLINK_TYPE

Über Starlink 3680

Beschreibung wird geladen...

Live-Position

3D-Globus wird geladen...

Nächste Überflüge

Höhenverlauf

Altitude vs Time

uPlot chart will show altitude changes over time

Zweizeiliger Elementsatz

1 51969U 22025P 25350.43596639 .00004964 00000-0 35181-3 0 9995
2 51969 53.0549 40.9689 0001286 86.1082 274.0054 15.06408634208410
Epoch: 16. Dez. 2025 • Age: 21 hours

Aktueller Status

Höhe 548.4 km
Geschwindigkeit 7.59 km/s
Subsatellitenpunkt -2.31°S, 158.05°W
Startdatum 9. März 2022
Alter 3.7 years
Typ internet

Technische Details

Klassifizierung Payload
Masse 297.00 kg
Trockenmasse 275.00 kg
Gesamtmasse 297.00 kg
Länge 0.20 m
Durchmesser 2.80 m
Spannweite 9.00 m
Form Box + pan
Hersteller SPXS
Bus-Typ Starlink
Phasenstatus In Orbit
Besitzer/Staat SPXS/US

Große Konstellationen

Loading constellations...